Location: Ravencliff
(37.6982°N, 81.4812°W)
Time: 19:58:33
(UTC+00:00)

ACS3 Solar Sail - Pass Details

Date: 21 April 2026
Orbit: 894 x 947 km, 97.2° (Epoch: 12 May)

Event Time Altitude Azimuth Distance (km) Brightness Sun altitude
Rises 06:19:02 0° 14° (NNE) 3,550 5.7 -38.8°
Reaches altitude 10° 06:21:29 10° 17° (NNE) 2,612 4.8 -38.7°
Enters shadow 06:24:40 34° 27° (NNE) 1,477 3.1 -38.5°
